Location: Devargunta
(16.7631°N, 80.9077°E)
Time: 19:20:52
(UTC+00:00)

IRS-1C Rocket - Pass Details

Date: 19 January 2021
Orbit: 801 x 805 km, 99.0° (Epoch: 28 February)

Event Time Altitude Azimuth Distance (km) Brightness Sun altitude
Rises 13:02:45 0° 157° (SSE) 3,300 7.2 -9.2°
Reaches altitude 10° 13:05:07 10° 153° (SSE) 2,371 6.5 -9.8°
Maximum altitude 13:10:14 56° 76° (ENE) 950 4.1 -10.9°
Drops below altitude 10° 13:15:21 10° 359° (N) 2,372 6.4 -12.1°
Sets 13:17:43 0° 355° (N) 3,303 7.2 -12.6°
